Weather History for KOTH - April, 2013

Change the Weather History Date:

Thursday, April 25, 2013

  Actual Average Record
Temperature  
Mean Temperature 49 °F 50 °F  
Max Temperature 59 °F 56 °F 81 °F (1924)
Min Temperature 39 °F 44 °F 31 °F (1918)
Degree Days  
Heating Degree Days 16 15  
Month to date heating degree days 362 403  
Since 1 July heating degree days 3912 4115  
Cooling Degree Days 0 0  
Month to date cooling degree days 0 0  
Year to date cooling degree days 0 0  
Moisture  
Dew Point 47 °F    
Average Humidity 88    
Maximum Humidity 100    
Minimum Humidity 62    
Precipitation  
Precipitation 0.00 in 0.14 in 0.64 in (2012)
Month to date precipitation 2.68 4.51  
Year to date precipitation 12.32 30.12  
Sea Level Pressure  
Sea Level Pressure 30.09 in    
Wind  
Wind Speed 9 mph (NNW)    
Max Wind Speed 20 mph    
Max Gust Speed 25 mph    
Visibility 9 miles    
Events      
T = Trace of Precipitation, MM = Missing Value Source: NWS Daily Summary

Daily Weather History Graph

Daily Weather History Graph

Search for Another Location

Airport or City:

Trip Planner

Search our weather history database for the weather conditions in past years. The results will help you decide how hot, cold, wet, or windy it might be!

Date:

Astronomy

Apr. 25, 2013 Rise Set
Actual Time 6:18 AM PDT 8:12 PM PDT
Civil Twilight 5:47 AM PDT 8:43 PM PDT
Nautical Twilight 5:09 AM PDT 9:20 PM PDT
Astronomical Twilight 4:29 AM PDT 10:01 PM PDT
Moon 8:33 PM PDT (4/25) 6:05 AM PDT (4/25)
Length of Visible Light 14h 55m
Length of Day
13h 54m
Full, 100% of the Moon is Illuminated
Apr 25
Full
Apr 25
Full
May 2
Last Quarter
May 9
New
May 17
First Quarter

Hourly Weather History & Observations

Time (PDT) Temp. Windchill Dew Point Humidity Pressure Visibility Wind Dir Wind Speed Gust Speed Precip Events Conditions
12:15 AM 48.2 °F - 44.6 °F 87% 30.01 in 8.0 mi West 4.6 mph - N/A   Clear
12:35 AM 48.2 °F - 46.4 °F 93% 30.01 in 7.0 mi NW 4.6 mph - N/A   Clear
12:55 AM 48.2 °F - 46.4 °F 93% 30.01 in 4.0 mi Calm Calm - N/A   Clear
1:15 AM 48.2 °F - 46.4 °F 93% 30.01 in 5.0 mi Calm Calm - N/A   Clear
1:35 AM 46.4 °F - 44.6 °F 93% 30.01 in 6.0 mi Calm Calm - N/A   Clear
1:55 AM 44.6 °F - 42.8 °F 93% 30.01 in 6.0 mi Calm Calm - N/A   Clear
2:15 AM 46.4 °F - 46.4 °F 100% 30.02 in 9.0 mi Calm Calm - N/A   Clear
2:35 AM 46.4 °F - 46.4 °F 100% 30.02 in 5.0 mi Calm Calm - N/A   Clear
2:55 AM 44.6 °F - 44.6 °F 100% 30.02 in 7.0 mi Calm Calm - N/A   Clear
3:15 AM 42.8 °F - 42.8 °F 100% 30.02 in 7.0 mi Calm Calm - N/A   Clear
3:35 AM 44.6 °F - 42.8 °F 93% 30.02 in 10.0 mi Calm Calm - N/A   Clear
3:55 AM 44.6 °F - 44.6 °F 100% 30.03 in 10.0 mi Calm Calm - N/A   Clear
4:15 AM 39.2 °F 37.0 °F 37.4 °F 93% 30.02 in 9.0 mi SSE 3.5 mph - N/A   Clear
4:35 AM 41.0 °F 39.0 °F 41.0 °F 100% 30.03 in 8.0 mi SSE 3.5 mph - N/A   Clear
4:55 AM 44.6 °F 43.1 °F 44.6 °F 100% 30.03 in 9.0 mi SSE 3.5 mph - N/A   Clear
5:15 AM 41.0 °F 39.0 °F 39.2 °F 93% 30.03 in 10.0 mi SSE 3.5 mph - N/A   Clear
5:35 AM 42.8 °F - 41.0 °F 93% 30.03 in 8.0 mi Calm Calm - N/A   Clear
5:55 AM 42.8 °F - 42.8 °F 100% 30.03 in 8.0 mi Calm Calm - N/A   Clear
6:15 AM 42.8 °F - 42.8 °F 100% 30.04 in 8.0 mi Calm Calm - N/A   Clear
6:35 AM 44.6 °F - 44.6 °F 100% 30.04 in 8.0 mi Calm Calm - N/A   Clear
6:55 AM 41.0 °F 38.0 °F 41.0 °F 100% 30.04 in 8.0 mi SSE 4.6 mph - N/A   Clear
7:15 AM 42.8 °F - 42.8 °F 100% 30.05 in 8.0 mi Calm Calm - N/A   Clear
7:35 AM 44.6 °F - 44.6 °F 100% 30.05 in 10.0 mi Calm Calm - N/A   Clear
7:55 AM 46.4 °F - 46.4 °F 100% 30.06 in 10.0 mi Calm Calm - N/A   Clear
8:15 AM 48.2 °F - 46.4 °F 93% 30.06 in 10.0 mi Calm Calm - N/A   Clear
8:35 AM 48.2 °F - 46.4 °F 93% 30.07 in 10.0 mi Calm Calm - N/A   Partly Cloudy
8:55 AM 51.8 °F - 46.4 °F 82% 30.07 in 10.0 mi Calm Calm - N/A   Clear
9:15 AM 53.6 °F - 46.4 °F 77% 30.07 in 10.0 mi West 3.5 mph - N/A   Clear
9:35 AM 55.4 °F - 48.2 °F 77% 30.08 in 10.0 mi WSW 3.5 mph - N/A   Clear
9:55 AM 55.4 °F - 48.2 °F 77% 30.08 in 9.0 mi WSW 5.8 mph - N/A   Clear
10:15 AM 57.2 °F - 48.2 °F 72% 30.09 in 10.0 mi NNW 8.1 mph - N/A   Clear
10:35 AM 57.2 °F - 48.2 °F 72% 30.09 in 10.0 mi North 9.2 mph - N/A   Clear
10:55 AM 59.0 °F - 46.4 °F 63% 30.09 in 10.0 mi NNW 8.1 mph - N/A   Clear
11:15 AM 57.2 °F - 48.2 °F 72% 30.10 in 10.0 mi North 13.8 mph 18.4 mph N/A   Clear
11:35 AM 57.2 °F - 48.2 °F 72% 30.10 in 10.0 mi North 17.3 mph 20.7 mph N/A   Clear
11:55 AM 57.2 °F - 48.2 °F 72% 30.10 in 10.0 mi North 17.3 mph 21.9 mph N/A   Clear
12:15 PM 55.4 °F - 50.0 °F 82% 30.10 in 10.0 mi North 16.1 mph - N/A   Clear
12:35 PM 59.0 °F - 50.0 °F 72% 30.10 in 10.0 mi North 11.5 mph 18.4 mph N/A   Clear
12:55 PM 59.0 °F - 51.8 °F 77% 30.11 in 10.0 mi North 13.8 mph - N/A   Clear
1:15 PM 57.2 °F - 50.0 °F 77% 30.11 in 10.0 mi North 18.4 mph 21.9 mph N/A   Clear
1:35 PM 57.2 °F - 50.0 °F 77% 30.11 in 10.0 mi North 18.4 mph - N/A   Clear
1:55 PM 57.2 °F - 50.0 °F 77% 30.11 in 10.0 mi North 13.8 mph 18.4 mph N/A   Clear
2:15 PM 57.2 °F - 50.0 °F 77% 30.12 in 10.0 mi North 17.3 mph - N/A   Clear
2:35 PM 57.2 °F - 50.0 °F 77% 30.12 in 10.0 mi North 15.0 mph - N/A   Clear
2:55 PM 57.2 °F - 50.0 °F 77% 30.12 in 10.0 mi North 17.3 mph - N/A   Clear
3:15 PM 59.0 °F - 50.0 °F 72% 30.12 in 10.0 mi North 15.0 mph 19.6 mph N/A   Clear
3:35 PM 57.2 °F - 50.0 °F 77% 30.12 in 10.0 mi North 17.3 mph 21.9 mph N/A   Clear
3:55 PM 57.2 °F - 50.0 °F 77% 30.11 in 10.0 mi North 19.6 mph 25.3 mph N/A   Clear
4:15 PM 57.2 °F - 50.0 °F 77% 30.12 in 10.0 mi North 13.8 mph 21.9 mph N/A   Clear
4:35 PM 57.2 °F - 50.0 °F 77% 30.11 in 10.0 mi North 19.6 mph 23.0 mph N/A   Clear
4:55 PM 57.2 °F - 50.0 °F 77% 30.12 in 10.0 mi North 17.3 mph 23.0 mph N/A   Clear
5:15 PM 57.2 °F - 50.0 °F 77% 30.12 in 10.0 mi North 18.4 mph 24.2 mph N/A   Clear
5:35 PM 55.4 °F - 51.8 °F 88% 30.12 in 10.0 mi North 18.4 mph 25.3 mph N/A   Clear
5:55 PM 55.4 °F - 51.8 °F 88% 30.13 in 10.0 mi North 15.0 mph 21.9 mph N/A   Clear
6:15 PM 55.4 °F - 50.0 °F 82% 30.14 in 10.0 mi North 16.1 mph - N/A   Clear
6:35 PM 55.4 °F - 50.0 °F 82% 30.14 in 10.0 mi North 18.4 mph 21.9 mph N/A   Clear
6:55 PM 53.6 °F - 50.0 °F 88% 30.13 in 10.0 mi North 18.4 mph - N/A   Clear
7:15 PM 53.6 °F - 50.0 °F 88% 30.14 in 10.0 mi North 18.4 mph - N/A   Clear
7:35 PM 51.8 °F - 50.0 °F 94% 30.14 in 9.0 mi NNW 16.1 mph 23.0 mph N/A   Clear
7:55 PM 51.8 °F - 50.0 °F 94% 30.14 in 9.0 mi North 18.4 mph - N/A   Clear
8:15 PM 51.8 °F - 50.0 °F 94% 30.15 in 10.0 mi North 12.7 mph - N/A   Clear
8:35 PM 51.8 °F - 50.0 °F 94% 30.15 in 10.0 mi North 15.0 mph 18.4 mph N/A   Clear
8:55 PM 51.8 °F - 50.0 °F 94% 30.16 in 10.0 mi North 11.5 mph - N/A   Clear
9:15 PM 51.8 °F - 50.0 °F 94% 30.17 in 10.0 mi North 8.1 mph - N/A   Clear
9:35 PM 50.0 °F - 48.2 °F 94% 30.18 in 10.0 mi NNW 5.8 mph - N/A   Clear
9:55 PM 50.0 °F - 48.2 °F 94% 30.18 in 10.0 mi NNW 6.9 mph - N/A   Clear
10:15 PM 48.2 °F - 46.4 °F 93% 30.18 in 8.0 mi NNW 10.4 mph - N/A   Clear
10:35 PM 48.2 °F - 46.4 °F 93% 30.18 in 8.0 mi North 5.8 mph - N/A   Clear
10:55 PM 48.2 °F - 46.4 °F 93% 30.19 in 7.0 mi North 4.6 mph - N/A   Partly Cloudy
11:15 PM 48.2 °F - 46.4 °F 93% 30.19 in 7.0 mi NNW 6.9 mph - N/A   Partly Cloudy
11:35 PM 48.2 °F - 48.2 °F 100% 30.19 in 7.0 mi North 8.1 mph - N/A   Scattered Clouds
11:55 PM 48.2 °F - 48.2 °F 100% 30.19 in 7.0 mi NNE 8.1 mph - N/A   Mostly Cloudy